DW6954 Weather Reports


Display with metric or nautical units.
time (UTC)temp
F
wind
direction
speed
MPH
gust
MPH
rain 1hr
in
rain 24hr
in
rain mn
in
humidity
%
barometer
mb
20260504033002 65 347 7.0 16.0 0.00 0.02 0.00 59 1005.4
20260504032501 65 19 5.0 16.0 0.00 0.02 0.00 58 1005.5
20260504032001 65 341 6.0 14.0 0.00 0.02 0.00 58 1005.6
20260504031502 65 4 7.0 18.0 0.00 0.02 0.00 58 1005.6
20260504031101 65 189 8.0 19.0 0.00 0.02 0.00 58 1005.6
20260504030600 65 331 7.0 19.0 0.00 0.02 0.00 58 1005.6
20260504030059 65 29 5.0 18.0 0.00 0.02 0.00 60 1005.8
20260504025558 65 54 6.0 18.0 0.00 0.02 0.00 59 1005.8
20260504025057 65 56 6.0 16.0 0.00 0.02 0.00 60 1005.9
20260504024555 65 31 6.0 16.0 0.00 0.02 0.00 60 1006.0
20260504024057 64 31 7.0 16.0 0.00 0.02 0.00 61 1006.0
20260504023553 64 65 7.0 16.0 0.00 0.02 0.00 61 1006.1
20260504023053 64 2 5.0 13.0 0.00 0.02 0.00 63 1006.2
20260504022553 64 323 7.0 14.0 0.00 0.02 0.00 62 1006.3
20260504022052 64 15 7.0 15.0 0.00 0.02 0.00 61 1006.3
20260504021552 64 59 5.0 18.0 0.00 0.02 0.00 62 1006.4
20260504021050 64 250 6.0 18.0 0.00 0.02 0.00 62 1006.5
20260504020550 64 62 7.0 15.0 0.00 0.02 0.00 62 1006.7
20260504020126 64 322 6.0 18.0 0.00 0.02 0.00 62 1006.7
20260504015549 64 57 6.0 18.0 0.00 0.09 0.00 62 1006.8
20260504015049 64 347 6.0 16.0 0.00 0.09 0.00 62 1006.9
20260504014559 64 7 6.0 17.0 0.00 0.09 0.00 62 1006.9
20260504014045 64 1 7.0 17.0 0.00 0.09 0.00 62 1007.0
20260504013545 64 274 7.0 14.0 0.00 0.09 0.00 63 1007.1
20260504013144 63 321 5.0 17.0 0.00 0.09 0.00 64 1007.1
20260504012544 63 3 6.0 17.0 0.00 0.09 0.00 64 1007.1
20260504012046 63 335 6.0 18.0 0.00 0.09 0.00 65 1007.1
20260504011546 63 315 8.0 19.0 0.00 0.09 0.00 66 1007.1
20260504011044 63 20 7.0 19.0 0.00 0.09 0.00 66 1007.1
20260504010544 63 46 6.0 15.0 0.00 0.09 0.00 67 1007.0
20260504010045 63 350 6.0 15.0 0.00 0.09 0.00 66 1007.1
20260504005542 63 42 6.0 15.0 0.00 0.21 0.00 67 1007.1
20260504005042 63 87 6.0 15.0 0.00 0.21 0.00 67 1007.1
20260504004605 63 353 5.0 14.0 0.00 0.21 0.00 68 1007.2
20260504004040 63 80 6.0 16.0 0.00 0.21 0.00 68 1007.2
20260504003539 62 5 6.0 16.0 0.00 0.21 0.00 68 1007.2
20260504003047 62 34 6.0 15.0 0.00 0.21 0.00 68 1007.2
20260504002539 62 349 5.0 14.0 0.00 0.21 0.00 68 1007.1
20260504002038 62 346 7.0 15.0 0.00 0.21 0.00 68 1007.2
20260504001600 62 301 7.0 15.0 0.00 0.21 0.00 68 1007.2
20260504001038 62 17 5.0 18.0 0.00 0.21 0.00 69 1007.1
20260504000538 62 14 7.0 18.0 0.00 0.21 0.00 69 1007.2
20260504000037 62 352 6.0 15.0 0.00 0.21 0.00 69 1007.2
20260503235537 61 345 5.0 17.0 0.00 0.31 0.00 70 1007.2
20260503235034 61 40 5.0 17.0 0.00 0.31 0.00 71 1007.2
20260503234533 61 55 7.0 17.0 0.00 0.31 0.00 71 1007.3
20260503234032 60 340 5.0 18.0 0.00 0.31 0.00 71 1007.4
20260503233531 60 26 6.0 13.0 0.00 0.31 0.00 72 1007.5
20260503233038 60 66 5.0 15.0 0.00 0.31 0.00 72 1007.6
20260503232630 60 336 5.0 15.0 0.00 0.31 0.00 72 1007.5
20260503232031 60 335 5.0 12.0 0.00 0.31 0.00 72 1007.6
20260503231529 59 46 5.0 14.0 0.00 0.31 0.00 72 1007.6
20260503231028 59 347 6.0 14.0 0.00 0.31 0.00 72 1007.6
20260503230527 59 344 6.0 13.0 0.00 0.31 0.00 72 1007.5
20260503230026 59 358 4.0 16.0 0.00 0.31 0.00 73 1007.6
20260503225526 59 1 4.0 13.0 0.00 0.31 0.00 73 1007.6
20260503225026 58 102 6.0 13.0 0.00 0.31 0.00 73 1007.6
20260503224525 58 12 5.0 13.0 0.00 0.31 0.00 74 1007.6
20260503224029 58 53 4.0 9.0 0.00 0.31 0.00 74 1007.6
20260503223524 58 26 3.0 7.0 0.00 0.31 0.00 74 1007.7
20260503223024 57 1 3.0 11.0 0.00 0.31 0.00 74 1007.8
20260503222524 57 335 4.0 11.0 0.00 0.31 0.00 74 1007.7
20260503222024 57 76 3.0 10.0 0.00 0.31 0.00 74 1007.7
20260503221524 57 91 2.0 12.0 0.00 0.31 0.00 75 1007.8
20260503221024 56 83 4.0 12.0 0.00 0.31 0.00 75 1007.7
20260503220523 56 341 1.0 9.0 0.00 0.31 0.00 76 1007.7
20260503220023 55 334 3.0 11.0 0.00 0.31 0.00 77 1007.8
20260503215522 55 351 3.0 11.0 0.00 0.31 0.00 78 1007.8
20260503215022 54 60 2.0 7.0 0.00 0.31 0.00 80 1007.7
20260503214522 54 29 1.0 6.0 0.00 0.31 0.00 80 1007.7
20260503214021 54 327 1.0 6.0 0.00 0.31 0.00 81 1007.7
20260503213521 53 40 2.0 6.0 0.00 0.31 0.00 82 1007.8
20260503213021 53 13 0.0 5.0 0.00 0.31 0.00 83 1007.6
20260503212521 53 15 0.0 3.0 0.00 0.31 0.00 83 1007.6
20260503211521 53 50 0.0 1.0 0.00 0.31 0.00 83 1007.6
20260503211020 53 33 0.0 1.0 0.00 0.31 0.00 83 1007.6
20260503210525 53 62 0.0 1.0 0.00 0.31 0.00 83 1007.6
20260503210020 53 47 0.0 1.0 0.00 0.31 0.00 83 1007.6
20260503205520 53 54 0.0 2.0 0.00 0.31 0.00 83 1007.5
20260503205020 53 34 0.0 2.0 0.00 0.31 0.00 83 1007.6
20260503204519 53 352 0.0 2.0 0.00 0.31 0.00 83 1007.5
20260503204018 53 7 0.0 2.0 0.00 0.31 0.00 84 1007.5
20260503203518 53 33 0.0 3.0 0.00 0.31 0.00 84 1007.4
20260503203040 53 1 0.0 3.0 0.00 0.31 0.00 84 1007.5
20260503202518 53 15 0.0 4.0 0.00 0.31 0.00 84 1007.4
20260503202018 53 18 0.0 4.0 0.00 0.31 0.00 84 1007.4
20260503201517 53 16 1.0 4.0 0.00 0.31 0.00 84 1007.3
20260503201017 53 40 1.0 4.0 0.00 0.31 0.00 84 1007.3
20260503200516 53 6 0.0 2.0 0.00 0.31 0.00 84 1007.2
20260503200016 53 27 0.0 8.0 0.00 0.31 0.00 84 1007.2
20260503195516 53 15 1.0 8.0 0.00 0.31 0.00 84 1007.2
20260503195015 53 31 1.0 4.0 0.00 0.31 0.00 84 1007.2
20260503194532 53 351 1.0 3.0 0.00 0.31 0.00 84 1007.2
20260503194015 53 72 1.0 6.0 0.00 0.31 0.00 84 1007.2
20260503193514 53 347 1.0 6.0 0.00 0.31 0.00 84 1007.2
20260503193014 53 28 1.0 5.0 0.00 0.31 0.00 85 1007.2
20260503192513 53 17 0.0 4.0 0.00 0.31 0.00 84 1007.2
20260503192012 53 48 1.0 5.0 0.00 0.31 0.00 84 1007.5
20260503191010 54 21 1.0 6.0 0.00 0.31 0.00 84 1007.6
20260503190510 54 357 1.0 6.0 0.00 0.31 0.00 84 1007.6
20260503190009 54 24 1.0 5.0 0.00 0.31 0.00 85 1007.6
20260503185513 54 50 1.0 7.0 0.00 0.31 0.00 85 1007.6
20260503185008 54 1 3.0 7.0 0.00 0.31 0.00 85 1007.6
20260503184513 54 38 1.0 5.0 0.00 0.31 0.00 85 1007.7
20260503184008 54 21 1.0 6.0 0.00 0.31 0.00 85 1007.7
20260503183508 54 33 2.0 6.0 0.00 0.31 0.00 86 1007.7
20260503183007 54 50 1.0 5.0 0.00 0.31 0.00 86 1007.8
20260503182507 54 359 1.0 4.0 0.00 0.31 0.00 86 1007.7
20260503182007 53 69 0.0 4.0 0.00 0.31 0.00 86 1007.7
20260503181506 53 45 1.0 4.0 0.00 0.31 0.00 86 1007.8
20260503181005 53 26 0.0 2.0 0.00 0.31 0.00 86 1007.8
20260503180504 53 50 0.0 3.0 0.00 0.31 0.00 85 1007.8
20260503180004 54 21 0.0 3.0 0.00 0.31 0.00 85 1007.9
20260503175504 54 74 0.0 3.0 0.00 0.31 0.00 85 1007.9
20260503175002 54 32 1.0 4.0 0.00 0.31 0.00 85 1007.9
20260503174503 54 64 0.0 4.0 0.00 0.31 0.00 85 1008.0
20260503174002 54 57 1.0 3.0 0.00 0.31 0.00 85 1008.0
20260503173502 54 61 0.0 4.0 0.00 0.31 0.00 84 1008.0
20260503173106 54 33 0.0 6.0 0.00 0.31 0.00 84 1008.0
20260503172559 54 31 1.0 7.0 0.00 0.31 0.00 84 1008.1
20260503172059 54 38 1.0 7.0 0.00 0.31 0.00 84 1008.1
20260503171604 54 30 3.0 7.0 0.00 0.31 0.00 85 1008.1
20260503170558 54 55 1.0 4.0 0.00 0.31 0.00 85 1008.1
20260503150545 56 21 2.0 10.0 0.00 0.31 0.00 82 1008.2
20260503131030 58 14 3.0 9.0 0.00 0.31 0.00 81 1008.6
20260503130529 58 33 3.0 8.0 0.00 0.31 0.00 81 1008.7
20260503120120 58 348 2.0 6.0 0.00 0.31 0.00 79 1009.1
20260503110519 59 69 2.0 6.0 0.00 0.31 0.31 77 1008.4
20260503081524 59 31 0.0 3.0 0.00 0.31 0.31 71 1007.3
20260503081010 59 27 0.0 3.0 0.00 0.31 0.31 71 1007.2
20260503080509 59 24 0.0 2.0 0.00 0.31 0.31 71 1007.3
20260503072503 62 28 0.0 2.0 0.00 0.31 0.31 65 1007.0
20260503072003 63 54 0.0 4.0 0.00 0.31 0.31 64 1007.1
20260503071502 63 329 0.0 4.0 0.00 0.31 0.31 62 1007.1
20260503071001 64 310 0.0 2.0 0.00 0.31 0.31 62 1007.0
20260503070501 64 318 0.0 2.0 0.00 0.31 0.31 60 1006.9
20260503060118 63 34 3.0 7.0 0.00 0.31 0.31 78 1006.3
20260503055101 63 8 1.0 4.0 0.00 0.31 0.31 81 1006.5
20260503054059 62 343 1.0 5.0 0.00 0.31 0.31 82 1006.6
20260503053559 62 33 1.0 5.0 0.00 0.31 0.31 82 1006.6
20260503053058 62 21 1.0 5.0 0.00 0.31 0.31 82 1006.5
20260503052558 62 357 1.0 5.0 0.00 0.31 0.31 82 1006.5
20260503052057 62 55 2.0 5.0 0.00 0.31 0.31 82 1006.5
20260503051557 62 334 1.0 5.0 0.01 0.31 0.31 83 1006.5
20260503051057 62 39 1.0 5.0 0.01 0.31 0.31 82 1006.5
20260503050557 62 324 1.0 5.0 0.02 0.31 0.31 82 1006.7
20260503050057 62 324 0.0 2.0 0.02 0.31 0.31 82 1006.5
20260503045558 62 25 0.0 5.0 0.02 0.31 0.31 82 1006.5
20260503045057 62 350 1.0 5.0 0.02 0.31 0.31 82 1006.4
20260503044558 62 30 1.0 9.0 0.02 0.31 0.31 82 1006.4
20260503044056 63 338 3.0 9.0 0.02 0.31 0.31 83 1006.5
20260503043556 63 35 1.0 9.0 0.02 0.31 0.31 83 1006.4
20260503043055 63 312 2.0 9.0 0.02 0.31 0.31 83 1006.3
20260503042555 64 329 3.0 9.0 0.02 0.31 0.31 82 1006.2
20260503042055 65 300 2.0 11.0 0.02 0.31 0.31 82 1006.2
20260503041555 66 286 5.0 11.0 0.01 0.31 0.31 82 1006.0
20260503041059 67 23 3.0 14.0 0.01 0.31 0.31 81 1006.0
20260503040558 67 45 6.0 14.0 0.00 0.30 0.30 80 1006.0
20260503040055 67 57 5.0 12.0 0.00 0.30 0.30 79 1006.0
20260503035555 67 25 4.0 12.0 0.00 0.30 0.30 79 1005.9
20260503035055 68 83 3.0 9.0 0.00 0.30 0.30 78 1005.8
20260503034554 68 72 3.0 8.0 0.00 0.30 0.30 77 1005.8
20260503033554 68 346 1.0 8.0 0.00 0.30 0.30 77 1005.8